Погода в Малом Зеленчуке

Россия / Карачаево-Черкесская Республика     44°09′48″N   41°51′56″E
темп.,
°C
ветер,
м/с
пор.,
м/с
влажн.,
%
обл.,
%
осадки,
мм/ч
давл.,
гПа
погр.,
м
15 мая, сб
сб1500:00+15ююз445650 0.0 101347
03:00+15ююз334998 0.0 101337
06:00+14ююз34640 0.0 101442
09:00+21сз22610 0.0 1014408
12:00+24с33669 0.0 1014829
15:00+24ссв456710 0.0 10131201
18:00+20ссз2280100 3.6 101424
21:00+15ююз338694 4.1 101427
16 мая, вс
вс1600:00+14ю338555 0.0 101232
03:00+13ю338489 0.4 101229
06:00+14ююз338280 0.0 101152
09:00+21в22676 0.0 1009448
12:00+25в45605 0.0 10071179
15:00+25в67615 0.0 10051312
18:00+22всв597745 0.0 1005504
21:00+17ююв228972 0.0 100514
17 мая, пн
пн1700:00+16ю338624 0.0 100427
03:00+15ю44630 0.0 100447
06:00+15ююз336999 0.0 100541
09:00+21зсз3458100 0.0 1006443
12:00+22сз5572100 0.0 1007875
15:00+18сз5791100 1.1 1009374
18:00+17с3793100 1.7 1010509
21:00+15з1298100 7.6 101179
18 мая, вт
вт1800:00+13зсз259899 3.7 1012178
03:00+13зюз2597100 6.1 1012377
06:00+13з1295100 4.0 1014156
09:00+15сз128757 4.1 1014408
12:00+18с337282 0.3 10141073
15:00+17ссз447982 2.3 1014649
18:00+17ссз118286 2.1 1015163
21:00+14ююз1189100 2.7 101610
19 мая, ср
ср1900:00+12ююз22925 0.0 101618
03:00+11ю33925 0.0 101642
06:00+12ю338691 0.0 101665
09:00+18юв12641 0.0 1015428
12:00+22в44585 0.0 10141049
15:00+23в56575 0.0 10121219
18:00+21в597578 0.0 1012487
21:00+17в238325 0.0 101285